• In Hungary
  • List of Countries
  • For 7 days
  • Water Temperature
  • Satellite Maps
  • Weather Map
  • News
  • Weather Widgets
  • user-avatar
    Login

    Hourly Weather Leuseni

    Today, 22 October, Monday

    Time Temperature Precipitation Wind Pressure Humidity
    00:00 +10°C° 0 mm 3 mps 758 mmHg 71%
    01:00 +9°C° 0 mm 3 mps 758 mmHg 73%
    02:00 +8°C° 0 mm 3 mps 758 mmHg 75%
    03:00 +8°C° 0 mm 3 mps 758 mmHg 76%
    04:00 +8°C° 0 mm 3 mps 758 mmHg 77%
    05:00 +7°C° 0 mm 3 mps 758 mmHg 78%
    06:00 +7°C° 0 mm 3 mps 758 mmHg 75%
    07:00 +8°C° 0 mm 3 mps 758 mmHg 72%
    08:00 +8°C° 0 mm 3 mps 758 mmHg 68%
    09:00 +10°C° 0 mm 3 mps 758 mmHg 62%
    10:00 +11°C° 0 mm 3 mps 758 mmHg 55%
    11:00 +13°C° 0 mm 3 mps 758 mmHg 49%
    12:00 +13°C° 0 mm 3 mps 757 mmHg 46%
    13:00 +14°C° 0 mm 3 mps 757 mmHg 44%
    14:00 +16°C° 0 mm 3 mps 757 mmHg 41%
    15:00 +14°C° 0 mm 3 mps 757 mmHg 43%
    16:00 +14°C° 0 mm 2 mps 756 mmHg 45%
    17:00 +13°C° 0 mm 2 mps 756 mmHg 47%
    18:00 +12°C° 0 mm 2 mps 756 mmHg 49%
    19:00 +12°C° 0 mm 1 mps 756 mmHg 51%
    20:00 +11°C° 0 mm 1 mps 756 mmHg 53%
    21:00 +10°C° 0 mm 1 mps 756 mmHg 55%
    22:00 +10°C° 0 mm 1 mps 756 mmHg 56%
    23:00 +10°C° 0 mm 1 mps 756 mmHg 58%

    Tomorrow, 23 October, Tuesday

    Time Temperature Precipitation Wind Pressure Humidity
    00:00 +9°C° 0 mm 1 mps 756 mmHg 59%
    01:00 +9°C° 0 mm 1 mps 756 mmHg 61%
    02:00 +9°C° 0 mm 1 mps 755 mmHg 62%
    03:00 +8°C° 0 mm 1 mps 755 mmHg 63%
    04:00 +8°C° 0 mm 1 mps 755 mmHg 65%
    05:00 +8°C° 0 mm 1 mps 754 mmHg 66%
    06:00 +8°C° 0 mm 1 mps 754 mmHg 64%
    07:00 +8°C° 0 mm 2 mps 754 mmHg 62%
    08:00 +8°C° 0 mm 2 mps 754 mmHg 60%
    09:00 +10°C° 0 mm 2 mps 754 mmHg 56%
    10:00 +11°C° 0 mm 3 mps 754 mmHg 52%
    11:00 +12°C° 0 mm 3 mps 753 mmHg 48%
    12:00 +13°C° 0 mm 4 mps 753 mmHg 48%
    13:00 +14°C° 0 mm 4 mps 752 mmHg 47%
    14:00 +15°C° 0 mm 4 mps 751 mmHg 46%
    15:00 +14°C° 0 mm 3 mps 750 mmHg 49%
    16:00 +14°C° 0 mm 2 mps 749 mmHg 52%
    17:00 +13°C° 0 mm 1 mps 749 mmHg 55%
    18:00 +13°C° 0 mm 2 mps 748 mmHg 55%
    19:00 +12°C° 0 mm 3 mps 747 mmHg 55%
    20:00 +12°C° 0 mm 3 mps 747 mmHg 55%
    21:00 +12°C° 0.1 mm 4 mps 746 mmHg 57%
    22:00 +12°C° 0.1 mm 5 mps 745 mmHg 59%
    23:00 +11°C° 0.1 mm 6 mps 744 mmHg 61%

    Day after tomorrow, 24 October, Wednesday

    Time Temperature Precipitation Wind Pressure Humidity
    00:00 +11°C° 0 mm 6 mps 744 mmHg 58%
    01:00 +11°C° 0 mm 6 mps 743 mmHg 55%
    02:00 +11°C° 0 mm 6 mps 742 mmHg 52%
    03:00 +10°C° 0 mm 6 mps 741 mmHg 53%
    04:00 +10°C° 0 mm 6 mps 740 mmHg 53%
    05:00 +10°C° 0 mm 6 mps 739 mmHg 54%
    06:00 +11°C° 0 mm 6 mps 738 mmHg 54%
    07:00 +11°C° 0 mm 7 mps 737 mmHg 54%
    08:00 +11°C° 0 mm 7 mps 736 mmHg 53%
    09:00 +12°C° 0.4 mm 8 mps 735 mmHg 54%
    10:00 +12°C° 0.4 mm 9 mps 735 mmHg 55%
    11:00 +12°C° 0.4 mm 10 mps 734 mmHg 55%
    12:00 +11°C° 0.6 mm 10 mps 734 mmHg 53%
    13:00 +9°C° 0.6 mm 10 mps 734 mmHg 51%
    14:00 +8°C° 0.6 mm 10 mps 734 mmHg 48%
    15:00 +7°C° 0 mm 10 mps 735 mmHg 47%
    16:00 +7°C° 0 mm 9 mps 736 mmHg 45%
    17:00 +6°C° 0 mm 9 mps 736 mmHg 43%
    18:00 +5°C° 0 mm 8 mps 737 mmHg 45%
    19:00 +5°C° 0 mm 8 mps 737 mmHg 47%
    20:00 +4°C° 0 mm 8 mps 738 mmHg 49%
    21:00 +3°C° 0 mm 9 mps 738 mmHg 53%
    22:00 +3°C° 0 mm 9 mps 737 mmHg 56%
    23:00 +3°C° 0 mm 10 mps 737 mmHg 59%

    25 October, Thursday

    Time Temperature Precipitation Wind Pressure Humidity
    00:00 +3°C° 0.1 mm 11 mps 737 mmHg 58%
    01:00 +3°C° 0.1 mm 12 mps 737 mmHg 58%
    02:00 +4°C° 0.1 mm 12 mps 738 mmHg 58%
    03:00 +4°C° 0.1 mm 12 mps 738 mmHg 59%
    04:00 +4°C° 0.1 mm 12 mps 739 mmHg 61%
    05:00 +4°C° 0.1 mm 11 mps 739 mmHg 63%
    06:00 +4°C° 0.1 mm 11 mps 740 mmHg 64%
    07:00 +5°C° 0.1 mm 10 mps 741 mmHg 66%
    08:00 +5°C° 0.1 mm 10 mps 742 mmHg 67%
    09:00 +5°C° 0.1 mm 10 mps 743 mmHg 63%
    10:00 +6°C° 0.1 mm 10 mps 743 mmHg 59%
    11:00 +6°C° 0.1 mm 11 mps 743 mmHg 55%
    12:00 +6°C° 0 mm 10 mps 743 mmHg 52%
    13:00 +7°C° 0 mm 10 mps 744 mmHg 50%
    14:00 +7°C° 0 mm 9 mps 744 mmHg 48%
    15:00 +8°C° 0 mm 7 mps 744 mmHg 48%
    16:00 +7°C° 0 mm 6 mps 744 mmHg 47%
    17:00 +7°C° 0 mm 4 mps 744 mmHg 47%
    18:00 +7°C° 0.2 mm 4 mps 743 mmHg 49%
    19:00 +6°C° 0.2 mm 4 mps 743 mmHg 52%
    20:00 +6°C° 0.2 mm 4 mps 743 mmHg 54%
    21:00 +7°C° 0.4 mm 5 mps 743 mmHg 56%
    22:00 +7°C° 0.4 mm 6 mps 742 mmHg 58%
    23:00 +8°C° 0.4 mm 7 mps 742 mmHg 60%

    26 October, Friday

    Time Temperature Precipitation Wind Pressure Humidity
    00:00 +8°C° 0.1 mm 7 mps 742 mmHg 63%
    01:00 +7°C° 0.1 mm 8 mps 742 mmHg 66%
    02:00 +7°C° 0.1 mm 8 mps 742 mmHg 69%
    03:00 +6°C° 0 mm 8 mps 743 mmHg 69%
    04:00 +6°C° 0 mm 8 mps 744 mmHg 69%
    05:00 +6°C° 0 mm 8 mps 745 mmHg 69%
    06:00 +6°C° 0 mm 8 mps 746 mmHg 68%
    07:00 +6°C° 0 mm 8 mps 747 mmHg 68%
    08:00 +5°C° 0 mm 7 mps 748 mmHg 67%
    09:00 +6°C° 0 mm 7 mps 748 mmHg 63%
    10:00 +8°C° 0 mm 7 mps 749 mmHg 59%
    11:00 +9°C° 0 mm 6 mps 749 mmHg 55%
    12:00 +10°C° 0 mm 5 mps 749 mmHg 52%
    13:00 +12°C° 0 mm 5 mps 750 mmHg 49%
    14:00 +12°C° 0 mm 4 mps 750 mmHg 47%
    15:00 +12°C° 0 mm 3 mps 750 mmHg 49%
    16:00 +12°C° 0 mm 2 mps 750 mmHg 50%
    17:00 +12°C° 0 mm 1 mps 750 mmHg 52%
    18:00 +11°C° 0 mm 1 mps 751 mmHg 54%
    19:00 +10°C° 0 mm 1 mps 751 mmHg 56%
    20:00 +10°C° 0 mm 1 mps 751 mmHg 58%
    21:00 +8°C° 0 mm 2 mps 751 mmHg 59%
    22:00 +8°C° 0 mm 2 mps 752 mmHg 60%
    23:00 +8°C° 0 mm 2 mps 752 mmHg 61%

    27 October, Saturday

    Time Temperature Precipitation Wind Pressure Humidity
    00:00 +7°C° 0 mm 2 mps 752 mmHg 62%
    01:00 +7°C° 0 mm 2 mps 751 mmHg 63%
    02:00 +7°C° 0 mm 2 mps 751 mmHg 64%
    03:00 +7°C° 0 mm 2 mps 751 mmHg 66%
    04:00 +6°C° 0 mm 2 mps 751 mmHg 68%
    05:00 +6°C° 0 mm 2 mps 750 mmHg 70%
    06:00 +7°C° 0 mm 2 mps 750 mmHg 69%
    07:00 +7°C° 0 mm 2 mps 750 mmHg 68%
    08:00 +8°C° 0 mm 3 mps 750 mmHg 67%
    09:00 +10°C° 0 mm 3 mps 749 mmHg 60%
    10:00 +13°C° 0 mm 4 mps 749 mmHg 54%
    11:00 +15°C° 0 mm 4 mps 749 mmHg 47%
    12:00 +16°C° 0 mm 5 mps 748 mmHg 44%
    13:00 +19°C° 0 mm 5 mps 748 mmHg 40%
    14:00 +21°C° 0 mm 6 mps 747 mmHg 37%
    15:00 +20°C° 0 mm 5 mps 747 mmHg 38%
    16:00 +19°C° 0 mm 5 mps 747 mmHg 40%
    17:00 +18°C° 0 mm 4 mps 747 mmHg 41%
    18:00 +17°C° 0 mm 4 mps 747 mmHg 42%
    19:00 +16°C° 0 mm 5 mps 747 mmHg 42%
    20:00 +15°C° 0 mm 5 mps 747 mmHg 43%
    21:00 +15°C° 0 mm 5 mps 747 mmHg 46%
    22:00 +14°C° 0 mm 4 mps 747 mmHg 48%
    23:00 +14°C° 0 mm 4 mps 747 mmHg 50%

    28 October, Sunday

    Time Temperature Precipitation Wind Pressure Humidity
    00:00 +14°C° 0 mm 4 mps 747 mmHg 52%
    01:00 +13°C° 0 mm 4 mps 746 mmHg 54%
    02:00 +13°C° 0 mm 4 mps 746 mmHg 55%
    03:00 +13°C° 0 mm 4 mps 746 mmHg 57%
    04:00 +13°C° 0 mm 4 mps 746 mmHg 58%
    05:00 +12°C° 0 mm 4 mps 746 mmHg 60%
    06:00 +13°C° 0 mm 5 mps 746 mmHg 62%
    07:00 +13°C° 0 mm 5 mps 746 mmHg 64%
    08:00 +13°C° 0 mm 6 mps 745 mmHg 66%
    09:00 +16°C° 0 mm 6 mps 745 mmHg 58%
    10:00 +18°C° 0 mm 7 mps 745 mmHg 50%
    11:00 +21°C° 0 mm 8 mps 745 mmHg 42%
    12:00 +23°C° 0 mm 8 mps 745 mmHg 39%
    13:00 +24°C° 0 mm 8 mps 745 mmHg 36%
    14:00 +26°C° 0 mm 8 mps 745 mmHg 33%
    15:00 +24°C° 0 mm 6 mps 745 mmHg 37%
    16:00 +23°C° 0 mm 5 mps 745 mmHg 40%
    17:00 +21°C° 0 mm 4 mps 745 mmHg 44%
    18:00 +20°C° 0 mm 4 mps 746 mmHg 47%
    19:00 +20°C° 0 mm 3 mps 747 mmHg 51%
    20:00 +19°C° 0 mm 3 mps 747 mmHg 54%
    21:00 +18°C° 0 mm 3 mps 748 mmHg 57%
    22:00 +18°C° 0 mm 2 mps 748 mmHg 60%
    23:00 +17°C° 0 mm 2 mps 749 mmHg 63%
    Show more